SCP
2 2 4 5 4 3 3 3 4 4 3 3 4 4 3 2 2 1 1 1 1 1 1 1 2 2 1 1 1 1 0 0 0 0 0 0 0 0 0 0 0 1 1
2 3 4 5 4 4 3 3 3 3 3 3 4 4 3 3 2 2 1 1 1 1 1 1 2 2 1 1 1 1 1 1 0 0 0 0 0 0 0 0 0 1 1
2 3 4 5 5 4 4 4 4 3 3 3 3 4 4 3 3 2 2 2 2 2 1 2 2 2 1 1 1 1 1 1 1 0 0 0 0 0 0 0 0 1 1
3 3 4 5 6 5 5 5 4 3 2 2 3 3 4 4 4 3 2 2 2 2 2 2 2 2 2 1 1 1 1 1 1 0 0 0 0 0 0 0 0 0 1
3 3 4 6 7 6 5 5 4 3 3 2 2 3 4 4 4 4 4 3 3 2 2 2 2 2 2 1 1 1 1 1 1 0 0 0 0 0 1 1 1 1 1
3 3 5 7 7 7 5 5 4 4 3 3 2 2 3 4 5 5 5 4 3 3 3 2 2 2 2 2 2 1 1 1 1 0 0 0 0 1 1 1 1 1 1
3 3 4 6 7 7 6 5 5 4 3 3 2 2 3 4 5 6 5 5 4 3 3 3 3 2 2 2 2 2 2 1 1 0 0 0 0 1 1 1 1 1 1
4 4 4 6 7 6 6 5 5 4 4 3 3 3 3 3 5 6 6 5 5 4 4 3 3 3 3 3 2 2 2 1 1 1 0 0 1 1 1 1 1 1 1
4 4 4 5 6 6 6 6 5 4 4 4 3 3 3 3 4 5 6 6 5 5 4 4 4 3 3 3 3 2 2 1 1 1 1 0 1 1 1 1 1 1 1
5 4 4 5 5 5 5 5 5 4 4 3 3 3 3 3 4 4 5 6 6 5 5 5 4 3 2 2 2 2 2 1 1 1 1 0 0 0 1 1 1 1 1
6 5 5 5 5 5 5 5 4 4 3 3 2 3 3 3 3 4 4 5 5 6 5 5 4 3 2 2 2 2 2 2 1 1 1 0 0 0 1 1 1 1 1
6 5 5 5 5 6 6 5 4 4 3 2 2 2 2 3 3 3 3 4 5 5 5 5 4 3 2 2 2 2 2 2 1 1 1 0 0 1 1 1 1 1 1
6 6 5 5 5 6 6 5 5 4 3 3 2 2 2 3 3 3 3 3 4 4 5 5 4 3 2 1 1 1 1 1 1 1 0 0 0 1 1 1 1 1 1
7 6 6 5 5 6 6 5 5 5 4 3 2 2 2 3 3 3 3 3 4 4 4 4 3 2 2 1 1 1 1 1 1 1 0 0 0 1 1 1 1 1 1
7 7 6 6 5 6 6 5 5 4 4 3 3 3 3 3 3 3 3 3 3 4 4 4 3 2 2 1 1 1 1 1 1 1 0 0 0 1 1 1 1 1 1
7 8 7 6 5 6 6 5 4 4 3 3 2 2 3 3 2 2 2 3 3 3 3 3 3 2 2 1 1 1 1 1 1 1 1 0 0 0 1 1 1 1 1
8 8 7 6 5 6 6 5 4 3 2 2 1 2 2 1 1 2 2 2 2 3 3 3 3 2 2 1 1 1 1 1 1 1 1 1 0 0 1 1 1 1 1
7 8 7 6 5 5 6 5 4 2 1 1 1 1 1 0 1 1 2 2 2 2 3 3 3 2 2 1 1 1 1 1 1 1 1 1 1 1 1 1 1 1 1
7 6 6 4 4 5 5 4 3 2 1 1 1 0 0 0 0 1 1 1 2 2 2 2 2 2 1 1 1 1 1 1 1 1 1 1 1 1 1 1 1 1 1
5 5 4 4 4 5 5 4 2 1 1 1 1 0 0 0 0 1 1 1 1 1 2 2 2 1 1 1 1 0 0 1 1 1 1 1 1 1 1 1 1 1 1
3 3 3 4 4 5 4 3 2 1 1 1 1 1 0 0 1 1 1 1 1 1 1 1 1 1 1 0 0 0 0 0 1 1 1 1 1 1 1 1 1 1 1
3 3 3 4 4 4 3 3 2 2 1 1 1 1 1 1 1 1 1 1 1 1 1 1 1 1 1 0 0 0 0 0 0 1 1 0 1 1 1 2 2 2 1
3 3 3 3 3 3 3 3 2 2 2 1 1 1 1 1 1 1 1 1 1 1 1 1 1 1 0 0 0 0 0 0 0 0 0 0 0 1 1 2 2 2 2
3 3 4 3 3 3 3 3 3 2 2 1 1 1 1 1 1 1 1 1 1 1 1 1 1 1 0 0 0 0 0 0 0 0 0 0 0 1 1 2 2 2 2
3 3 4 4 3 3 3 3 3 2 2 1 1 1 1 1 1 1 1 0 0 0 1 1 1 1 0 0 0 0 0 0 0 0 0 0 0 1 1 1 2 2 2
2 3 4 4 3 3 3 3 3 2 2 2 2 1 1 1 1 1 1 1 0 0 0 1 1 1 1 0 0 0 0 0 0 0 0 0 0 0 1 1 2 2 2
Wind_Speed
1 1 2 2 2 4 4 5 6 7 8 9 9 9 8 8 8 8 8 8 8 8 8 9 9 9 9 9 9 9 9 10 10 9 9 9 9 9 9 8 6 7 9
1 2 2 2 2 4 4 4 5 6 7 8 8 8 8 8 8 8 8 8 8 8 8 8 9 9 9 9 9 9 9 9 9 8 8 8 8 8 8 7 6 7 9
1 2 3 2 1 4 4 4 5 6 7 7 8 8 8 8 7 7 7 8 7 7 8 8 8 8 8 9 9 9 9 9 8 6 4 5 7 8 8 8 8 8 8
1 1 2 2 1 2 4 5 5 5 6 7 7 7 7 7 7 7 7 7 7 7 8 8 8 8 8 8 8 8 8 8 7 3 3 4 5 7 7 7 7 7 7
1 1 2 2 2 2 4 4 5 5 6 6 7 7 7 7 7 7 7 7 7 7 7 7 8 8 8 8 8 8 8 7 5 2 4 4 4 6 6 6 6 6 6
0 0 2 2 1 2 3 4 4 5 6 6 6 7 7 7 7 7 7 6 6 7 7 7 7 8 8 8 7 7 7 6 4 3 3 3 3 6 5 5 5 5 5
1 0 1 1 1 1 2 3 4 4 5 6 6 6 7 7 7 6 6 6 6 6 6 7 7 8 8 8 7 6 6 3 2 3 3 3 4 5 5 5 5 5 5
0 0 1 0 2 0 1 3 4 4 4 5 6 6 6 6 6 6 6 6 5 6 6 7 7 7 7 7 7 6 5 2 3 3 3 3 4 4 5 4 4 4 4
1 1 1 2 1 1 1 2 3 3 4 5 5 5 5 5 6 7 6 6 5 5 6 6 7 7 7 7 7 6 4 1 3 2 2 2 4 4 4 3 3 3 3
1 1 1 2 2 2 3 2 2 2 3 3 4 4 4 5 5 5 5 6 5 6 5 5 6 6 6 6 6 5 3 3 3 3 2 3 4 3 3 2 2 2 2
2 2 2 2 2 2 3 3 3 3 3 3 4 3 4 5 5 5 4 4 5 6 6 6 6 6 6 6 6 5 4 3 3 2 2 3 3 3 3 2 2 2 1
3 3 2 2 2 2 2 3 3 4 4 4 4 4 3 3 4 4 4 3 4 5 5 5 5 5 5 4 5 5 3 3 3 2 2 3 3 3 3 3 2 2 2
4 4 3 3 3 2 2 2 2 2 3 3 4 4 3 3 3 3 3 3 4 5 4 5 5 3 3 3 3 3 3 3 2 2 2 3 3 3 3 3 3 3 3
5 4 3 3 3 3 2 2 2 2 2 2 3 4 3 2 3 3 3 3 3 3 4 3 2 3 3 4 4 4 4 3 2 2 2 2 3 4 4 4 4 4 4
5 4 4 3 3 2 2 2 2 2 2 3 2 3 3 2 3 3 3 3 3 3 3 3 3 3 3 3 4 4 4 4 4 3 2 2 3 4 4 4 4 4 4
5 5 4 4 3 3 3 2 2 2 2 3 3 3 4 3 3 3 3 3 3 3 3 3 3 3 3 3 3 4 4 4 4 4 3 3 3 4 5 5 5 5 4
5 4 5 4 3 4 3 3 2 2 2 2 3 3 4 3 4 4 3 4 3 4 4 3 3 3 3 3 3 3 3 4 4 4 4 3 3 3 4 5 5 5 5
4 4 4 3 3 3 3 2 2 2 2 2 2 3 3 3 3 3 3 3 3 3 3 3 3 3 3 3 3 3 3 3 5 5 4 4 3 3 3 4 5 5 5
3 3 4 3 3 3 2 2 2 2 2 2 2 2 3 3 3 3 3 3 3 3 4 4 3 3 3 2 2 3 3 4 4 4 5 4 4 4 4 3 4 4 5
3 3 3 2 2 2 2 1 1 1 2 2 2 2 3 3 3 3 3 4 4 4 4 4 4 3 3 3 2 2 3 4 4 4 5 4 4 5 5 4 4 3 4
2 2 2 2 2 2 2 2 2 2 2 2 2 2 3 3 3 3 3 3 4 4 5 5 3 4 3 3 2 2 2 4 5 5 4 4 5 5 5 5 4 3 3
2 2 3 2 2 3 2 2 2 2 2 2 2 2 2 3 3 3 4 3 4 4 5 5 4 4 3 4 3 2 2 3 4 5 4 4 5 4 5 5 4 4 3
2 2 2 2 3 3 2 1 1 1 1 1 2 2 3 3 3 4 4 4 4 5 5 6 6 6 5 4 4 3 3 3 1 3 5 5 5 5 5 5 5 5 4
3 2 2 2 2 2 2 2 2 1 1 3 3 2 2 3 3 4 4 4 4 4 5 6 5 5 6 5 4 4 4 2 3 2 3 4 5 6 6 5 5 5 5
2 2 2 2 2 1 1 2 2 2 2 2 1 1 2 2 3 3 4 4 5 5 5 5 5 6 5 5 4 4 4 4 5 4 4 4 4 4 5 5 5 4 5
2 2 2 2 2 2 1 1 2 3 2 2 2 1 1 1 2 3 4 5 5 5 5 6 6 7 6 6 5 5 4 4 4 4 4 4 4 3 4 4 5 4 4
Wind_Direction
115 123 60 2 139 131 128 135 136 139 143 142 140 139 137 134 132 131 126 124 121 118 117 117 115 113 113 113 112 108 104 101 98 97 96 96 97 96 95 93 95 90 85
126 148 113 24 148 141 135 132 136 137 142 142 141 141 141 141 139 137 133 130 127 125 124 119 116 113 114 114 113 109 105 102 96 95 99 98 94 94 94 88 72 82 87
97 135 140 56 119 152 138 134 133 140 145 145 142 140 142 143 143 141 139 137 134 129 126 123 120 115 113 111 112 112 108 104 100 96 114 112 102 94 93 90 84 87 85
80 129 131 54 45 147 146 139 138 139 147 147 144 144 144 143 141 141 142 141 138 134 129 125 122 119 115 114 112 112 109 106 103 116 121 104 105 98 99 94 93 89 84
65 119 103 42 54 127 140 144 141 136 142 150 149 147 146 145 143 144 143 140 138 135 131 127 124 123 120 116 115 114 111 108 110 136 104 102 103 102 101 96 95 92 88
7 124 104 19 36 125 143 141 147 146 143 147 152 151 153 151 146 141 142 141 138 137 135 133 131 127 126 124 119 117 118 114 150 126 110 109 107 106 105 95 92 94 92
325 336 135 9 11 124 135 152 149 148 154 145 149 154 156 154 149 145 140 138 140 140 137 139 139 135 131 129 127 121 120 127 147 123 118 112 99 104 114 107 98 95 92
319 310 176 10 353 320 158 152 161 159 158 151 144 148 154 157 156 153 148 143 140 144 142 141 144 144 140 139 138 130 126 165 156 139 132 118 99 112 115 107 102 102 95
289 270 223 208 215 278 229 165 159 166 164 154 147 142 148 149 158 163 158 152 145 142 143 144 147 151 148 145 140 134 130 200 185 150 139 124 112 126 120 108 103 107 101
287 273 250 226 216 222 206 167 163 163 162 161 153 142 147 158 158 159 165 157 153 145 143 146 148 152 149 147 143 141 152 203 179 159 155 122 124 142 138 138 131 125 118
283 265 257 243 234 234 222 186 177 171 153 160 161 145 162 175 171 170 159 154 160 154 151 150 149 149 149 148 148 152 189 191 173 172 157 113 143 162 162 174 182 185 173
278 269 252 247 245 239 226 198 193 186 178 183 183 176 179 180 173 169 145 148 157 155 153 149 144 158 171 164 155 174 191 190 187 178 139 128 169 181 185 195 202 207 209
264 262 258 253 243 239 237 219 203 200 195 192 188 186 185 176 172 169 160 158 165 169 166 156 167 175 179 173 180 192 198 198 198 185 148 156 198 208 210 208 216 222 227
261 256 253 248 241 234 240 241 224 209 210 202 192 191 184 182 187 183 184 179 184 188 181 182 186 178 181 185 193 197 200 207 204 197 151 166 220 228 230 228 227 235 233
266 259 253 242 240 239 232 242 242 223 220 208 196 198 192 190 192 194 190 184 189 193 191 186 189 184 186 189 199 205 204 209 212 210 181 172 230 238 237 240 244 243 243
268 260 249 236 234 238 236 241 244 242 223 213 202 210 198 191 196 194 195 186 187 191 196 195 194 193 193 194 203 213 210 210 214 216 215 189 207 240 245 246 252 251 248
266 258 240 235 229 232 236 238 240 254 242 219 208 207 204 196 200 200 201 193 188 184 188 188 193 199 196 202 205 220 225 218 213 217 221 224 210 211 240 248 249 253 248
265 259 238 225 226 228 240 248 243 246 247 227 209 204 200 196 205 207 196 199 191 188 183 182 195 196 198 207 211 222 231 230 224 219 219 221 227 226 218 239 251 252 251
259 266 244 226 223 225 239 249 255 253 255 243 214 201 195 192 206 211 199 197 195 195 193 188 194 198 197 207 218 229 235 234 230 222 220 222 225 229 228 214 235 251 259
277 280 259 237 234 227 221 243 247 243 265 258 221 198 192 199 204 205 204 202 200 199 196 193 188 188 197 205 214 241 250 242 232 226 224 223 223 225 228 224 221 224 252
276 284 265 233 229 223 213 222 228 234 246 261 226 195 194 206 206 197 205 207 210 208 201 195 186 184 189 192 216 240 254 247 238 229 225 226 224 225 228 229 230 232 232
284 277 252 238 234 226 225 227 234 241 251 260 224 201 201 205 210 203 204 211 210 207 203 199 195 195 196 198 215 230 241 233 228 228 223 224 229 227 228 230 230 231 237
300 284 260 257 254 238 218 188 215 239 272 280 253 221 208 210 211 214 211 217 211 211 206 207 208 205 200 202 212 220 232 236 264 215 223 224 225 229 227 226 228 230 234
301 289 278 282 267 236 202 199 213 225 252 270 264 243 220 218 219 217 216 224 220 219 215 212 214 218 207 205 206 226 245 260 247 252 222 222 226 233 231 226 228 226 229
315 312 312 304 289 276 227 223 241 241 256 275 277 258 259 231 222 222 223 224 225 223 220 219 219 221 217 217 216 214 221 231 238 241 248 240 228 229 235 232 229 226 226
337 327 318 301 305 315 297 255 251 248 254 263 263 267 267 260 241 226 226 228 229 228 224 222 223 224 222 220 222 220 217 215 220 230 238 246 253 243 235 236 233 227 223